Location: Killam
(52.7910°N, 111.8608°W)
Time: 09:25:09
(UTC+00:00)

NOAA 15 - Pass Details

Date: 15 December 2025
Orbit: 794 x 809 km, 98.5° (Epoch: 25 January)

Event Time Altitude Azimuth Distance (km) Brightness Sun altitude
Rises 14:00:23 0° 22° (NNE) 3,320 7.8 -13.0°
Reaches altitude 10° 14:03:03 10° 33° (NNE) 2,382 7.2 -12.6°
Maximum altitude 14:07:35 29° 93° (E) 1,438 6.7 -11.9°
Drops below altitude 10° 14:12:04 10° 153° (SSE) 2,360 7.8 -11.3°
Sets 14:14:41 0° 164° (SSE) 3,284 8.4 -11.0°
